Regional Weather Roundup
Issued by NWS

Home | Current Version | Previous Version | Text Only | Print | Product List | Glossary On
Versions: 1 2 3 4 5 6 7 8 9 10 11 12 13 14 15 16 17 18 19 20 21 22 23 24 25 26 27 28 29 30 31 32 33 34 35 36 37 38 39 40 41 42 43 44 45 46 47 48 49 50
000
ASUS45 KBOU 212107
RWRCO

WEATHER ROUNDUP FOR COLORADO
NATIONAL WEATHER SERVICE DENVER/BOULDER CO
200 PM MST TUE FEB 21 2017

NOTE: "FAIR" INDICATES FEW OR NO CLOUDS BELOW 12000 FEET WITH NO
SIGNIFICANT WEATHER AND/OR OBSTRUCTIONS TO VISIBILITY.

COZ001>005-013-030-031-212200-
...NORTHWEST COLORADO...

CITY           SKY/WX    TMP DP  RH WIND       PRES   REMARKS
CRAIG          FAIR      55  31  39 SW26G36   30.08F
HAYDEN         PTSUNNY   52  27  37 W16       30.10S
MEEKER         FAIR      53  32  44 SW17G28   30.12F
MOUNT WERNER   NOT AVBL
STEAMBOAT SPGS FAIR      48  27  44 NW3       30.10F
WALDEN         NOT AVBL
$$

COZ006>008-011-212200-
...WEST CENTRAL VALLEYS...

CITY           SKY/WX    TMP DP  RH WIND       PRES   REMARKS
GRAND JUNCTION FAIR      61  38  42 W8        30.13F
MONTROSE       FAIR      58  30  34 W7        30.20F
EAGLE          MOSUNNY   55  30  38 W13G23    30.16F
RIFLE          FAIR      58  35  42 S5        30.13F
DELTA          FAIR      62  33  33 N6        30.17F
NUCLA          FAIR      57  32  38 SW14G20   30.27F
$$

COZ017>023-064>068-212200-
...SOUTHWEST COLORADO...

CITY           SKY/WX    TMP DP  RH WIND       PRES   REMARKS
DURANGO        FAIR      55  33  43 SW14      30.30F
CORTEZ         FAIR      58  36  43 SW15G28   30.28F
PAGOSA SPRINGS FAIR      50  27  41 S7        30.33F
TELLURIDE      FAIR      48  14  25 SW3G17    30.33F
WOLF CREEK PAS FAIR      32  23  69 S14G23    30.45F WCI  22
$$

COZ009-010-012-014-032>034-037-058>063-212200-
...CENTRAL COLORADO...

CITY           SKY/WX    TMP DP  RH WIND       PRES   REMARKS
ASPEN          FAIR      54  16  22 N5        30.18F
BUENA VISTA    FAIR      55  17  22 S7G18     30.19F
COPPER MTN     FAIR      36   9  32 W26G39    30.30  HAZE
BERTHOUD PASS  FAIR      28  18  64 W31G43    30.28F WCI  12
COTTONWOOD PAS FAIR      50   0  12 SW17G26   30.27F
GUNNISON       FAIR      33  24  69 SE5       30.29F WCI  29
KREMMLING      FAIR      59  27  29 W16G25    30.14F
LEADVILLE      FAIR      42   2  18 W10       30.24F
MONARCH PASS   CLOUDY    32  18  55 SW30G37   30.46F WCI  18
SALIDA         NOT AVBL
SUNLIGHT       NOT AVBL
WILKERSON PASS FAIR      41  14  33 SW10G21   30.32F
$$

COZ069>075-212200-
...SAN LUIS VALLEY/SANGRE DE CRISTO MOUNTAINS...

CITY           SKY/WX    TMP DP  RH WIND       PRES   REMARKS
ALAMOSA        FAIR      52  28  39 VRB6      30.25F
LA VETA PASS   FAIR      46  19  34 NE14G25   30.33F
SAGUACHE       FAIR      50  25  37 SE6       30.27F
$$

COZ035-036-038>040-212200-
...NORTHERN COLORADO FRONT RANGE...

CITY           SKY/WX    TMP DP  RH WIND       PRES   REMARKS
DENVER INTL AP FAIR      72   8   8 W21       29.99F
DMNS CITY PARK   N/A     71  11  10 W8G15     30.00F
AURORA         MOSUNNY   71   9   9 SW21      30.01F
FRONT RANGE AP MOSUNNY   73  12   9 SW14G21   30.01F
ERIE MUNI ARPT FAIR      71  13  11 W17G24    30.00F
BOULDER MUN AP FAIR      68  19  15 W9G16     30.01F
CENTENNIAL     FAIR      68   8   9 W14G23    30.04F
BROOMFIELD     MOSUNNY   72  16  12 NW9G18    30.02F
FORT COLLINS   FAIR      68  20  16 W14G26    30.01R
LONGMONT       FAIR      71  17  13 W12G18    30.04S
$$

COZ041-046-047-076>085-087-088-212200-
...PIKES PEAK/PALMER DIVIDE AND SOUTHERN FOOTHILLS...

CITY           SKY/WX    TMP DP  RH WIND       PRES   REMARKS
COLO. SPRINGS  FAIR      71   0   6 W24G30    30.09S
A. F. ACADEMY  FAIR      66   8  10 W17G28    30.10F
SCHRIEVER AFB  FAIR      69   8   9 NW10G21   30.08F
ELLICOTT       FAIR     N/A N/A N/A VRB3      30.06F
FALCON         FAIR      67   8  10 W18G25    30.12F
FORT CARSON    FAIR      71   2   6 W25       30.06F
LIMON          FAIR      74   1   6 NW16G23   30.01F
MONUMENT HILL  FAIR      63  10  13 W24G30    30.13F
TRINIDAD       FAIR      76  -7   4 MISG      30.05F
$$

COZ042>045-048>051-090-091-212200-
...NORTHEAST COLORADO...

CITY           SKY/WX    TMP DP  RH WIND       PRES   REMARKS
GREELEY ARPT   FAIR      69  19  15 MISG        N/A
AKRON          FAIR      73  14  10 W25G35    29.95F
BURLINGTON     FAIR      76  19  11 W10       29.98F
WRAY           NOT AVBL
STERLING       FAIR      75  19  12 NW26G33   29.90F
HOLYOKE        FAIR      79  18  10 W23G36    29.90F
FORT MORGAN    FAIR      72  16  12 W30G37    29.96S
$$

COZ086-089-092>099-212200-
...SOUTHEAST COLORADO...

CITY           SKY/WX    TMP DP  RH WIND       PRES   REMARKS
PUEBLO         FAIR      76  11   8 NW26G37   30.01F
LA JUNTA       FAIR      81  12   7 NW16G23   29.98F
LAMAR          FAIR      78  17  10 W7        29.96F
SPRINGFIELD      N/A     77  17  10 N7        30.01F
$$



USA.gov is the U.S. government's official web portal to all federal, state and local government web resources and services.